[[{"header":{"parameterUnit":"m.s-1","parameterCategory":1,"la1":30.2992,"la2":30.254,"lo1":-89.0895,"lo2":-89.0443,"dy":0.0025,"dx":0.0025,"nx":19,"ny":19,"refTime":"2026-05-12T09:00:00:Z","depth":0,"parameterNumber":2,"parameterNumberName":"U-component_of_WINDS"},"data":[0,0,0,-1.8671,-1.8674,-1.8813,-1.8813,-1.8993,-1.8995,0,0,0,0,0,0,0,0,0,0,0,-1.8631,-1.8633,-1.8671,-1.8674,-1.8812,-1.8813,-1.8993,-1.8995,0,0,0,0,0,0,0,0,0,0,0,-1.8631,-1.8632,-1.8634,-1.8675,-1.8812,-1.8813,-1.8993,-1.8887,0,0,0,0,0,0,0,0,0,0,-1.8752,-1.8717,-1.8632,-1.8634,-1.8676,-1.8812,-1.8813,-1.8882,-1.8894,-1.8932,0,-1.8965,0,-1.8983,-1.9007,-1.9008,0,0,0,-1.8674,-1.8707,-1.8743,-1.8634,-1.8677,-1.8812,-1.875,-1.8889,-1.8902,-1.8947,-1.8968,-1.8974,-1.8986,-1.9008,-1.9009,-1.9228,-1.9229,0,0,-1.8666,-1.8657,-1.8734,-1.8752,-1.873,-1.8746,-1.8754,-1.8897,-1.8919,-1.8968,-1.8978,-1.8989,-1.9009,-1.9011,-1.9227,-1.9229,0,0,0,-1.8645,-1.8652,-1.8684,-1.8744,-1.8769,-1.875,-1.876,-1.8912,-1.8923,-1.898,-1.8991,-1.901,-1.9013,-1.9226,-1.9228,-1.9272,0,0,0,-1.864,-1.864,-1.8681,-1.8677,-1.8766,-1.8842,-1.8772,-1.8914,-1.893,-1.899,-1.9011,-1.9014,-1.9225,-1.9227,-1.9269,-1.9296,0,0,0,-1.8622,-1.8637,-1.8658,-1.8676,-1.8735,-1.884,-1.886,-1.8917,-1.8937,-1.9008,-1.9015,-1.9224,-1.9227,-1.9265,-1.929,-1.9352,0,0,0,-1.8601,-1.8696,-1.8658,-1.8768,-1.8734,-1.8866,-1.8859,-1.8957,-1.9024,-1.9011,-1.9225,-1.9228,-1.9264,-1.9287,-1.9349,-1.9404,-1.9426,0,0,-1.8716,-1.8709,-1.8774,-1.8745,-1.8881,-1.8845,-1.8988,-1.9058,-1.9072,-1.9176,-1.9181,-1.927,-1.929,-1.9351,-1.9546,-1.9563,0,0,0,-1.8808,-1.8855,-1.8893,-1.8955,-1.9009,-1.9059,-1.9106,-1.9132,-1.922,-1.9123,-1.9308,-1.932,-1.9357,-1.9384,-1.9398,-1.9431,-1.9239,-1.9239,-1.9239,-1.896,-1.8973,-1.9082,-1.9112,-1.9172,-1.922,-1.927,-1.9313,-1.9309,-1.9352,-1.9384,-1.9501,-1.9532,-1.9543,-1.9576,-1.9412,-1.9412,-1.9413,-1.9413,-1.9132,-1.9201,-1.9192,-1.9295,-1.9308,-1.9394,-1.9444,-1.9438,-1.9521,-1.9478,-1.9511,-1.9464,-1.9561,-1.9591,-1.9416,-1.9416,-1.9415,-1.9415,-1.9415,-1.9235,-1.9271,-1.9299,-1.939,-1.9458,-1.9484,-1.9565,-1.9573,-1.9582,-1.9614,-1.9649,-1.9649,-1.9651,-1.963,-1.963,-1.963,-1.9631,-1.9631,-1.9631,-1.9332,-1.9363,-1.9429,-1.9493,-1.9534,-1.9589,-1.9637,-1.9677,-1.9725,-1.9725,-1.9726,-1.9718,-1.9567,-1.953,-1.9638,-1.9637,-1.9636,-1.9635,-1.9635,-1.9506,-1.9468,-1.957,-1.9611,-1.9687,-1.9755,-1.9764,-1.9846,-1.9881,-1.992,-1.9905,-1.9791,-1.9785,-1.9774,-1.9744,-1.99,-1.99,-1.99,-1.99,-1.9595,-1.9592,-1.9699,-1.9763,-1.9828,-1.9845,-1.9962,-1.9999,-2.0032,-2.0055,-2.0033,-1.9992,-1.998,-1.9982,-1.9966,-1.9938,-2.0141,-2.0141,-2.0141,-1.9704,-1.9707,-1.9804,-1.9835,-1.9894,-1.9946,-2.0056,-2.0131,-2.0161,-2.0151,-2.0073,-2.0063,-1.9998,-1.9976,-1.9968,-1.9942,-1.9891,0,0]},{"header":{"parameterUnit":"m.s-1","parameterCategory":1,"la1":30.2992,"la2":30.254,"lo1":-89.0895,"lo2":-89.0443,"dy":0.0025,"dx":0.0025,"nx":19,"ny":19,"refTime":"2026-05-12T09:00:00:Z","depth":0,"parameterNumber":3,"parameterNumberName":"V-component_of_WINDS"},"data":[0,0,0,-5.3339,-5.334,-5.3379,-5.3379,-5.3449,-5.345,0,0,0,0,0,0,0,0,0,0,0,-5.3341,-5.3342,-5.3339,-5.334,-5.3379,-5.3379,-5.3449,-5.345,0,0,0,0,0,0,0,0,0,0,0,-5.334,-5.3341,-5.3343,-5.334,-5.3379,-5.3379,-5.3449,-5.3412,0,0,0,0,0,0,0,0,0,0,-5.3371,-5.3386,-5.3341,-5.3343,-5.3341,-5.3379,-5.3379,-5.341,-5.3414,-5.3441,0,-5.3469,0,-5.3461,-5.3456,-5.3457,0,0,0,-5.333,-5.3382,-5.3381,-5.3343,-5.3341,-5.3379,-5.3358,-5.3412,-5.3417,-5.3447,-5.347,-5.3472,-5.3462,-5.3457,-5.3457,-5.3646,-5.3647,0,0,-5.3328,-5.3355,-5.3377,-5.3385,-5.3381,-5.3357,-5.336,-5.3415,-5.3441,-5.347,-5.3473,-5.3463,-5.3457,-5.3458,-5.3645,-5.3646,0,0,0,-5.3328,-5.3354,-5.335,-5.3382,-5.3388,-5.3359,-5.3362,-5.3439,-5.3435,-5.3473,-5.3464,-5.3458,-5.3459,-5.3643,-5.3645,-5.374,0,0,0,-5.3327,-5.3354,-5.335,-5.3367,-5.3387,-5.3414,-5.3385,-5.3431,-5.3437,-5.3464,-5.3458,-5.346,-5.3642,-5.3644,-5.3734,-5.378,0,0,0,-5.3334,-5.3355,-5.3365,-5.3368,-5.3386,-5.3412,-5.3412,-5.3432,-5.3432,-5.3457,-5.346,-5.3641,-5.3644,-5.3729,-5.3771,-5.3838,0,0,0,-5.3349,-5.3449,-5.3367,-5.3475,-5.3386,-5.3471,-5.3411,-5.3473,-5.3505,-5.3458,-5.3642,-5.3645,-5.3727,-5.3766,-5.3833,-5.39,-5.393,0,0,-5.349,-5.3467,-5.3527,-5.3456,-5.3562,-5.3463,-5.3582,-5.3586,-5.3563,-5.3619,-5.3623,-5.3736,-5.3771,-5.3837,-5.4089,-5.4114,0,0,0,-5.3581,-5.3626,-5.3648,-5.3681,-5.3686,-5.3694,-5.3677,-5.3678,-5.3724,-5.3598,-5.3777,-5.3797,-5.3834,-5.3865,-5.3886,-5.3917,-5.366,-5.366,-5.366,-5.3821,-5.3786,-5.3885,-5.3855,-5.3887,-5.3867,-5.389,-5.3888,-5.3843,-5.3886,-5.3903,-5.4061,-5.4098,-5.4113,-5.4146,-5.3935,-5.3935,-5.3936,-5.3936,-5.4025,-5.4083,-5.402,-5.4093,-5.4056,-5.4116,-5.4101,-5.4067,-5.4118,-5.4045,-5.4077,-5.4001,-5.4141,-5.4168,-5.3943,-5.3942,-5.3941,-5.394,-5.394,-5.4179,-5.4201,-5.42,-5.4243,-5.428,-5.4245,-5.4297,-5.426,-5.4226,-5.4257,-5.4271,-5.4269,-5.4263,-5.4266,-5.4266,-5.4267,-5.4267,-5.4268,-5.4268,-5.434,-5.4336,-5.4385,-5.4398,-5.4413,-5.4429,-5.441,-5.4424,-5.443,-5.4399,-5.4399,-5.4351,-5.4161,-5.4115,-5.4276,-5.4275,-5.4274,-5.4273,-5.4272,-5.4562,-5.4505,-5.458,-5.4596,-5.4608,-5.4647,-5.4598,-5.463,-5.4637,-5.4663,-5.4607,-5.4473,-5.4446,-5.4429,-5.4391,-5.4614,-5.4614,-5.4614,-5.4614,-5.4693,-5.4675,-5.4743,-5.477,-5.4793,-5.4756,-5.4841,-5.4827,-5.4803,-5.4804,-5.4766,-5.4711,-5.4696,-5.4678,-5.4656,-5.462,-5.4896,-5.4897,-5.4897,-5.4827,-5.481,-5.489,-5.4866,-5.4872,-5.4878,-5.4956,-5.499,-5.4951,-5.4907,-5.4805,-5.4793,-5.4704,-5.4677,-5.4633,-5.4599,-5.4531,0,0]}]]